DateTimeUTC,F1_A11,F1_S11,BsB_S11,BsG_S11,BsR_S11,BbsB_S11,BbsG_S11,BbsR_S11,BaB_A11,BaG_A11,BaR_A11,Tu_S11,T_S11,Uu_S11,U_S11,P_S11,T1_A11
2021-06-07T16:00:00Z,00000200,20000000,,,,,,,-000.06,-000.61,-000.54,20.0,26.2,03.8,02.6,0671.6,31.1
2021-06-07T16:01:00Z,00000200,20000000,,,,,,,-000.09,0000.27,0000.56,20.0,26.2,03.7,02.5,0671.6,31.2
2021-06-07T16:02:00Z,00000200,20000000,,,,,,,0000.21,-000.06,-000.45,20.0,26.2,03.5,02.4,0671.6,31.1
2021-06-07T16:03:00Z,00000200,60000000,,,,,,,-000.53,-000.11,0000.09,20.0,26.2,03.5,02.4,0671.6,31.1
2021-06-07T16:04:00Z,00000200,40000000,0001.11,0001.05,0000.82,0000.14,0000.05,0000.10,0000.27,0000.00,0000.10,20.1,26.1,03.3,02.3,0672.5,31.1
2021-06-07T16:05:00Z,00000200,00000000,0001.20,0000.83,0000.34,0000.41,0000.29,-000.15,0000.23,0000.43,0000.39,20.1,26.0,03.2,02.2,0672.6,31.1
2021-06-07T16:06:00Z,00000200,00000000,0001.08,0000.67,0000.60,0000.46,0000.26,-000.29,0000.67,0000.21,0000.55,20.1,26.0,03.3,02.3,0672.6,31.1
2021-06-07T16:07:00Z,00000200,00000000,0001.06,0000.87,0000.52,0000.16,0000.39,0000.05,0000.78,0000.94,0000.29,20.1,26.0,03.4,02.4,0672.6,31.2
2021-06-07T16:08:00Z,00000200,00000000,0001.43,0000.89,0000.64,0000.42,0000.42,0000.27,0000.64,0000.46,0000.48,20.1,26.0,03.7,02.6,0672.6,31.1
2021-06-07T16:09:00Z,00000200,00000000,0001.14,0000.96,0000.54,0000.21,0000.35,0000.04,0000.55,0000.90,0000.15,20.1,26.0,03.7,02.6,0672.6,31.2
2021-06-07T16:10:00Z,00000200,00000000,0001.48,0001.05,0000.94,0000.51,0000.29,-000.03,0000.03,-000.38,0000.36,20.1,26.0,03.8,02.7,0672.6,31.2
2021-06-07T16:11:00Z,00000200,00000000,0001.25,0001.27,0000.66,0000.22,0000.28,0000.16,-000.89,-000.50,-000.91,20.1,26.0,03.3,02.3,0672.5,31.1
2021-06-07T16:12:00Z,00000200,00000000,0001.07,0000.70,0000.58,-000.10,0000.21,-000.26,0000.13,0000.16,0000.52,20.1,26.0,03.2,02.2,0672.5,31.2
2021-06-07T16:13:00Z,00000200,00000000,0001.82,0001.07,0000.50,-000.01,0000.28,0000.10,-000.22,-000.02,-000.01,20.1,26.0,03.1,02.2,0672.5,31.1
2021-06-07T16:14:00Z,00000200,00000000,0001.08,0001.31,0000.44,0000.13,0000.18,0000.10,0000.39,0000.27,-000.02,20.1,26.0,03.0,02.1,0672.5,31.1
2021-06-07T16:15:00Z,00000200,00000000,0001.58,0000.87,0000.51,-000.29,0000.27,0000.05,0000.89,0000.57,0000.60,20.1,26.0,03.1,02.2,0672.5,31.1
2021-06-07T16:16:00Z,00000200,00000000,0001.53,0000.91,0000.77,-000.10,0000.27,0000.16,0000.08,0000.15,0000.02,20.1,26.0,03.2,02.3,0672.5,31.1
2021-06-07T16:17:00Z,00000200,00000000,0000.95,0000.80,0000.55,0000.12,0000.27,0000.05,0000.07,0000.22,0000.28,20.1,26.0,03.1,02.2,0672.5,31.1
2021-06-07T16:18:00Z,00000200,00000000,0001.19,0001.12,0000.42,0000.29,0000.10,0000.08,-000.33,-000.41,-000.33,20.1,26.0,03.0,02.1,0672.5,31.1
2021-06-07T16:19:00Z,00000200,00000000,0001.58,0000.99,0000.99,-000.17,0000.02,0000.14,0000.89,0000.69,0000.64,20.1,26.0,02.9,02.0,0672.5,31.1
2021-06-07T16:20:00Z,00000200,00000000,0001.59,0001.12,0000.65,0000.32,-000.04,0000.07,0000.74,0000.40,0000.36,20.1,26.0,03.1,02.2,0672.5,31.1
2021-06-07T16:21:00Z,00000200,00000000,0000.87,0000.96,0000.46,0000.08,0000.50,0000.11,0000.17,0000.19,-000.00,20.1,26.0,03.2,02.2,0672.5,31.1
2021-06-07T16:22:00Z,00000200,00000000,0001.37,0001.08,0000.45,0000.00,0000.27,0000.16,-000.69,-000.69,-000.43,20.1,26.0,03.0,02.1,0672.4,31.2
2021-06-07T16:23:00Z,00000200,00000000,0000.94,0001.11,0000.84,-000.06,0000.41,-000.09,0000.17,0000.35,0000.28,20.1,26.0,02.9,02.0,0672.4,31.1
2021-06-07T16:24:00Z,00000200,00000000,0001.23,0000.89,0000.55,0000.39,0000.39,0000.06,0000.57,0000.31,0000.40,20.1,26.0,02.9,02.1,0672.4,31.1
2021-06-07T16:25:00Z,00000200,00000000,0001.19,0001.13,0000.57,-000.38,0000.34,0000.03,0000.17,0000.56,-000.09,20.1,26.0,02.9,02.0,0672.4,31.1
2021-06-07T16:26:00Z,00000200,00000000,0001.06,0001.12,0000.39,0000.55,0000.19,-000.06,0001.10,0000.57,0000.92,20.1,26.0,03.0,02.1,0672.4,31.1
2021-06-07T16:27:00Z,00000200,00000000,0001.76,0001.13,0000.30,-000.29,0000.55,-000.32,0000.32,0000.84,0000.14,20.1,26.0,03.2,02.2,0672.4,31.1
2021-06-07T16:28:00Z,00000200,00000000,0001.47,0001.18,0000.46,0000.34,0000.27,0000.31,0000.86,0000.24,0000.60,20.1,26.0,03.3,02.3,0672.4,31.1
2021-06-07T16:29:00Z,00000200,00000000,0001.82,0001.00,0000.63,0000.15,0000.28,-000.09,0000.33,0000.52,0000.30,20.1,26.0,03.4,02.4,0672.4,31.2
2021-06-07T16:30:00Z,00000200,00000000,0001.57,0000.98,0000.41,0000.37,0000.33,-000.13,0000.23,0000.03,0000.50,20.1,26.0,03.5,02.4,0672.4,31.1
2021-06-07T16:31:00Z,00000200,00000000,0001.45,0000.73,0000.62,0000.03,0000.19,-000.03,-000.40,0000.05,-000.48,20.1,26.0,03.3,02.3,0672.4,31.2
2021-06-07T16:32:00Z,00000200,00000000,0001.50,0001.10,0000.61,0000.05,0000.28,-000.11,0000.43,0000.45,0000.16,20.1,26.0,03.3,02.3,0672.4,31.1
2021-06-07T16:33:00Z,00000200,00000000,0000.86,0001.00,0000.58,-000.20,0000.22,-000.02,0000.56,0000.30,0000.12,20.1,26.0,03.3,02.3,0672.4,31.2
2021-06-07T16:34:00Z,00000200,00000000,0001.59,0001.09,0000.89,-000.16,0000.25,-000.12,0000.19,0000.15,0000.33,20.1,26.0,03.2,02.2,0672.4,31.1
2021-06-07T16:35:00Z,00000200,00000000,0001.18,0001.32,0000.88,0000.06,0000.08,-000.07,0000.07,0000.17,0000.04,20.1,26.0,03.2,02.2,0672.4,31.1
2021-06-07T16:36:00Z,00000200,00000000,0001.70,0001.02,0000.73,0000.02,0000.08,0000.24,0000.03,-000.28,0000.11,20.1,26.0,03.2,02.2,0672.4,31.2
2021-06-07T16:37:00Z,00000200,00000000,0001.80,0001.01,0000.64,0000.64,0000.23,0000.22,0000.52,0000.64,0000.13,20.1,26.0,03.0,02.1,0672.4,31.1
2021-06-07T16:38:00Z,00000200,00000000,0000.99,0001.00,0000.21,0000.36,0000.15,-000.20,0001.02,0001.20,0001.00,20.1,26.0,03.2,02.2,0672.5,31.2
2021-06-07T16:39:00Z,00000200,00000000,0002.03,0000.76,0000.68,0000.30,0000.22,0000.30,-000.31,-000.26,-000.12,20.1,26.0,03.4,02.4,0672.5,31.2
2021-06-07T16:40:00Z,00000200,00000000,0001.79,0001.35,0000.52,-000.31,0000.48,0000.17,-000.42,-000.47,-000.41,20.1,26.0,03.0,02.1,0672.5,31.1
2021-06-07T16:41:00Z,00000200,00000000,0001.83,0001.00,0000.42,-000.14,0000.42,-000.16,0000.47,0000.20,0000.56,20.1,26.0,02.8,02.0,0672.5,31.2
2021-06-07T16:42:00Z,00000200,00000000,0002.14,0000.87,0000.77,0000.72,0000.15,0000.10,0001.40,0001.21,0000.77,20.1,26.0,03.0,02.1,0672.5,31.1
2021-06-07T16:43:00Z,00000200,00000000,0001.27,0001.14,0000.63,-000.28,0000.22,0000.21,-000.20,-000.08,-000.32,20.1,26.0,03.2,02.2,0672.5,31.1
2021-06-07T16:44:00Z,00000200,00000000,0001.42,0001.01,0000.44,0000.18,0000.32,0000.08,0000.37,0000.36,0000.29,20.1,26.0,03.0,02.1,0672.5,31.1
2021-06-07T16:45:00Z,00000200,00000000,0001.66,0001.30,0000.69,0000.33,0000.31,0000.07,0000.71,0000.62,0000.47,20.1,26.0,03.1,02.2,0672.5,31.2
2021-06-07T16:46:00Z,00000200,00000000,0001.78,0001.16,0000.67,-000.22,0000.11,0000.17,0000.44,0000.39,0000.08,20.1,26.0,03.3,02.3,0672.5,31.1
2021-06-07T16:47:00Z,00000200,00000000,0001.93,0001.21,0000.81,-000.13,0000.52,0000.28,0000.24,0000.34,0000.43,20.1,26.0,03.4,02.3,0672.5,31.2
2021-06-07T16:48:00Z,00000200,00000000,0001.42,0001.27,0000.57,-000.11,0000.18,-000.02,0000.47,0000.15,0000.27,20.1,26.0,03.3,02.3,0672.5,31.1
2021-06-07T16:49:00Z,00000200,00000000,0001.25,0001.35,0000.69,-000.00,0000.21,0000.18,0000.11,0000.57,0000.29,20.1,26.0,03.4,02.4,0672.5,31.1
2021-06-07T16:50:00Z,00000200,00000000,0002.21,0001.17,0000.60,0000.74,0000.04,0000.18,0000.32,0000.13,0000.25,20.1,26.0,03.3,02.3,0672.5,31.2
2021-06-07T16:51:00Z,00000200,00000000,0001.66,0001.31,0000.86,0000.36,0000.24,0000.01,0000.46,0000.34,-000.08,20.1,26.0,03.3,02.3,0672.5,31.1
2021-06-07T16:52:00Z,00000200,00000000,0001.63,0001.08,0000.63,0000.58,0000.22,-000.17,0000.23,0000.32,0000.67,20.1,26.0,03.5,02.4,0672.6,31.1
2021-06-07T16:53:00Z,00000200,00000000,0002.20,0001.03,0000.40,0000.19,0000.39,0000.08,0000.54,0000.13,-000.09,20.1,26.0,03.4,02.4,0672.5,31.2
2021-06-07T16:54:00Z,00000200,00000000,0002.26,0000.68,0000.81,-000.10,0000.28,0000.47,0000.59,0000.52,0000.68,20.1,26.0,03.5,02.5,0672.6,31.1
2021-06-07T16:55:00Z,00000200,00000000,0001.50,0001.05,0000.26,0000.27,0000.14,0000.33,0000.73,0000.82,0000.41,20.1,26.0,03.7,02.6,0672.6,31.1
2021-06-07T16:56:00Z,00000200,00000000,0001.24,0001.06,0000.33,-000.08,0000.25,-000.25,0000.38,0000.53,0000.47,20.1,26.0,04.0,02.8,0672.6,31.2
2021-06-07T16:57:00Z,00000200,40000000,,,,,,,-000.01,-000.14,0000.28,20.0,26.1,03.7,02.6,0672.6,31.2
2021-06-07T16:58:00Z,00000200,60000000,,,,,,,-000.01,0000.02,-000.15,19.9,26.1,03.8,02.6,0671.6,31.2
2021-06-07T16:59:00Z,00000200,20000000,,,,,,,0000.23,0000.09,-000.11,19.9,26.2,03.8,02.6,0671.6,31.1
